When you browse on this site, cookies collect data to enhance your experience and personalize the content and advertising you see.
Visit our Privacy Policy to learn more. By continuing to use the site, you agree to this use of cookies and data.
  • In Latvia
  • List of Countries
  • For 7 days
  • Water Temperature
  • Weather Map
  • Weather Widgets
  • user-avatar
    Login

    Hourly Weather Golyn

    Today, 16 October, Wednesday

    Time Temperature Precipitation Wind Pressure Humidity
    00:00 +13°C° 0 mm 3 mps 742 mmHg 78%
    01:00 +13°C° 0 mm 3 mps 742 mmHg 79%
    02:00 +13°C° 0 mm 3 mps 742 mmHg 77%
    03:00 +13°C° 0 mm 3 mps 741 mmHg 76%
    04:00 +12°C° 0 mm 4 mps 741 mmHg 75%
    05:00 +13°C° 0 mm 4 mps 741 mmHg 71%
    06:00 +14°C° 0 mm 5 mps 741 mmHg 68%
    07:00 +14°C° 0 mm 5 mps 742 mmHg 65%
    08:00 +15°C° 0 mm 6 mps 742 mmHg 66%
    09:00 +16°C° 0 mm 6 mps 742 mmHg 67%
    10:00 +17°C° 0 mm 7 mps 742 mmHg 68%
    11:00 +18°C° 0 mm 7 mps 743 mmHg 67%
    12:00 +18°C° 0 mm 7 mps 743 mmHg 66%
    13:00 +18°C° 0 mm 7 mps 744 mmHg 65%
    14:00 +17°C° 0 mm 6 mps 744 mmHg 67%
    15:00 +16°C° 0 mm 6 mps 744 mmHg 70%
    16:00 +15°C° 0 mm 5 mps 744 mmHg 72%
    17:00 +14°C° 0 mm 5 mps 745 mmHg 74%
    18:00 +14°C° 0 mm 5 mps 745 mmHg 75%
    19:00 +13°C° 0 mm 5 mps 745 mmHg 76%
    20:00 +12°C° 0 mm 4 mps 746 mmHg 74%
    21:00 +12°C° 0 mm 4 mps 746 mmHg 72%
    22:00 +11°C° 0 mm 4 mps 746 mmHg 70%
    23:00 +11°C° 0 mm 4 mps 746 mmHg 73%

    Tomorrow, 17 October, Thursday

    Time Temperature Precipitation Wind Pressure Humidity
    00:00 +11°C° 0 mm 4 mps 747 mmHg 76%
    01:00 +10°C° 0 mm 4 mps 747 mmHg 78%
    02:00 +10°C° 0 mm 4 mps 747 mmHg 79%
    03:00 +10°C° 0 mm 4 mps 747 mmHg 81%
    04:00 +10°C° 0 mm 4 mps 747 mmHg 82%
    05:00 +10°C° 0 mm 4 mps 747 mmHg 80%
    06:00 +10°C° 0 mm 4 mps 747 mmHg 79%
    07:00 +10°C° 0 mm 4 mps 747 mmHg 77%
    08:00 +12°C° 0 mm 4 mps 747 mmHg 70%
    09:00 +14°C° 0 mm 4 mps 747 mmHg 64%
    10:00 +15°C° 0 mm 4 mps 748 mmHg 57%
    11:00 +17°C° 0 mm 4 mps 748 mmHg 54%
    12:00 +18°C° 0 mm 4 mps 747 mmHg 52%
    13:00 +19°C° 0 mm 3 mps 747 mmHg 49%
    14:00 +19°C° 0 mm 3 mps 747 mmHg 52%
    15:00 +18°C° 0 mm 2 mps 747 mmHg 55%
    16:00 +17°C° 0 mm 2 mps 747 mmHg 58%
    17:00 +16°C° 0 mm 2 mps 747 mmHg 59%
    18:00 +16°C° 0 mm 2 mps 747 mmHg 61%
    19:00 +15°C° 0 mm 2 mps 747 mmHg 63%
    20:00 +14°C° 0 mm 2 mps 747 mmHg 63%
    21:00 +14°C° 0 mm 2 mps 748 mmHg 63%
    22:00 +14°C° 0 mm 2 mps 748 mmHg 64%
    23:00 +14°C° 0 mm 2 mps 748 mmHg 64%

    Day after tomorrow, 18 October, Friday

    Time Temperature Precipitation Wind Pressure Humidity
    00:00 +14°C° 0 mm 2 mps 747 mmHg 64%
    01:00 +14°C° 0 mm 2 mps 747 mmHg 64%
    02:00 +14°C° 0 mm 2 mps 747 mmHg 67%
    03:00 +13°C° 0 mm 2 mps 747 mmHg 71%
    04:00 +13°C° 0 mm 2 mps 747 mmHg 75%
    05:00 +12°C° 0 mm 2 mps 747 mmHg 78%
    06:00 +12°C° 0 mm 2 mps 747 mmHg 82%
    07:00 +12°C° 0 mm 2 mps 747 mmHg 85%
    08:00 +13°C° 0 mm 2 mps 747 mmHg 79%
    09:00 +15°C° 0 mm 2 mps 747 mmHg 73%
    10:00 +16°C° 0 mm 2 mps 747 mmHg 67%
    11:00 +17°C° 0 mm 2 mps 747 mmHg 63%
    12:00 +19°C° 0 mm 1 mps 747 mmHg 59%
    13:00 +20°C° 0 mm 1 mps 747 mmHg 55%
    14:00 +19°C° 0 mm 1 mps 747 mmHg 58%
    15:00 +19°C° 0 mm 1 mps 747 mmHg 61%
    16:00 +16°C° 0 mm 0 mps 747 mmHg 64%
    17:00 +18°C° 0 mm 1 mps 747 mmHg 66%
    18:00 +16°C° 0 mm 1 mps 747 mmHg 69%
    19:00 +15°C° 0 mm 1 mps 747 mmHg 71%
    20:00 +15°C° 0 mm 1 mps 747 mmHg 73%
    21:00 +15°C° 0 mm 1 mps 747 mmHg 75%
    22:00 +14°C° 0 mm 2 mps 747 mmHg 78%
    23:00 +14°C° 0 mm 2 mps 747 mmHg 80%

    19 October, Saturday

    Time Temperature Precipitation Wind Pressure Humidity
    00:00 +14°C° 0 mm 2 mps 746 mmHg 82%
    01:00 +14°C° 0 mm 1 mps 746 mmHg 85%
    02:00 +13°C° 0 mm 2 mps 746 mmHg 86%
    03:00 +13°C° 0 mm 2 mps 746 mmHg 86%
    04:00 +13°C° 0 mm 2 mps 746 mmHg 87%
    05:00 +13°C° 0 mm 2 mps 746 mmHg 88%
    06:00 +13°C° 0 mm 2 mps 745 mmHg 88%
    07:00 +13°C° 0 mm 2 mps 745 mmHg 88%
    08:00 +13°C° 0 mm 3 mps 745 mmHg 82%
    09:00 +16°C° 0 mm 3 mps 744 mmHg 76%
    10:00 +17°C° 0 mm 4 mps 744 mmHg 71%
    11:00 +18°C° 0 mm 3 mps 744 mmHg 67%
    12:00 +19°C° 0 mm 3 mps 743 mmHg 64%
    13:00 +20°C° 0 mm 3 mps 743 mmHg 61%
    14:00 +19°C° 0.1 mm 3 mps 743 mmHg 63%
    15:00 +19°C° 0.1 mm 2 mps 742 mmHg 65%
    16:00 +18°C° 0.1 mm 2 mps 742 mmHg 68%
    17:00 +18°C° 0 mm 2 mps 742 mmHg 70%
    18:00 +17°C° 0 mm 2 mps 742 mmHg 72%
    19:00 +16°C° 0 mm 2 mps 742 mmHg 73%
    20:00 +16°C° 0 mm 2 mps 742 mmHg 72%
    21:00 +16°C° 0 mm 2 mps 742 mmHg 71%
    22:00 +16°C° 0 mm 3 mps 742 mmHg 69%
    23:00 +16°C° 0 mm 3 mps 742 mmHg 70%

    20 October, Sunday

    Time Temperature Precipitation Wind Pressure Humidity
    00:00 +14°C° 0 mm 3 mps 742 mmHg 71%
    01:00 +14°C° 0 mm 3 mps 742 mmHg 72%
    02:00 +13°C° 0 mm 3 mps 743 mmHg 76%
    03:00 +12°C° 0 mm 3 mps 743 mmHg 80%
    04:00 +12°C° 0 mm 3 mps 743 mmHg 84%
    05:00 +12°C° 0 mm 2 mps 743 mmHg 86%
    06:00 +12°C° 0 mm 2 mps 743 mmHg 87%
    07:00 +12°C° 0 mm 2 mps 744 mmHg 88%
    08:00 +13°C° 0 mm 3 mps 744 mmHg 82%
    09:00 +14°C° 0 mm 3 mps 744 mmHg 76%
    10:00 +16°C° 0 mm 3 mps 745 mmHg 70%
    11:00 +17°C° 0 mm 3 mps 745 mmHg 67%
    12:00 +18°C° 0 mm 3 mps 745 mmHg 64%
    13:00 +18°C° 0 mm 3 mps 746 mmHg 61%
    14:00 +18°C° 0 mm 2 mps 746 mmHg 64%
    15:00 +17°C° 0 mm 2 mps 746 mmHg 67%
    16:00 +16°C° 0 mm 1 mps 746 mmHg 71%
    17:00 +15°C° 0 mm 1 mps 747 mmHg 74%
    18:00 +15°C° 0 mm 1 mps 747 mmHg 77%
    19:00 +14°C° 0 mm 1 mps 747 mmHg 80%
    20:00 +14°C° 0 mm 1 mps 748 mmHg 82%
    21:00 +13°C° 0 mm 1 mps 748 mmHg 85%
    22:00 +12°C° 0 mm 0 mps 748 mmHg 87%
    23:00 +13°C° 0 mm 1 mps 748 mmHg 87%

    21 October, Monday

    Time Temperature Precipitation Wind Pressure Humidity
    00:00 +13°C° 0 mm 1 mps 748 mmHg 87%
    01:00 +13°C° 0 mm 1 mps 748 mmHg 88%
    02:00 +13°C° 0.5 mm 2 mps 748 mmHg 89%
    03:00 +13°C° 0.5 mm 2 mps 748 mmHg 90%
    04:00 +13°C° 0.5 mm 2 mps 748 mmHg 91%
    05:00 +13°C° 0.2 mm 2 mps 748 mmHg 91%
    06:00 +12°C° 0.2 mm 3 mps 748 mmHg 91%
    07:00 +12°C° 0.2 mm 3 mps 748 mmHg 91%
    08:00 +13°C° 0.1 mm 3 mps 747 mmHg 86%
    09:00 +15°C° 0.1 mm 2 mps 747 mmHg 81%
    10:00 +16°C° 0.1 mm 2 mps 747 mmHg 76%
    11:00 +16°C° 0 mm 2 mps 747 mmHg 77%
    12:00 +16°C° 0 mm 2 mps 747 mmHg 78%
    13:00 +16°C° 0 mm 2 mps 747 mmHg 80%
    14:00 +15°C° 0 mm 2 mps 747 mmHg 81%
    15:00 +14°C° 0 mm 3 mps 746 mmHg 82%
    16:00 +14°C° 0 mm 3 mps 746 mmHg 84%
    17:00 +14°C° 0 mm 3 mps 747 mmHg 85%
    18:00 +15°C° 0 mm 2 mps 747 mmHg 86%
    19:00 +14°C° 0 mm 2 mps 747 mmHg 87%
    20:00 +14°C° 0.1 mm 2 mps 747 mmHg 88%
    21:00 +14°C° 0.1 mm 2 mps 748 mmHg 90%
    22:00 +14°C° 0.1 mm 2 mps 748 mmHg 91%
    23:00 +14°C° 0.3 mm 2 mps 748 mmHg 93%
    Show more